Temp
46 45 45 44 44 43 42 41 40 40 39 39 38 38 37 37 36 35 35 34 34 33 32 31 31 31 31 30 30 30 29 29 28 27 27 27 27 26 26 25 25 25
45 45 44 44 43 42 43 42 41 40 39 39 38 38 37 36 36 35 35 34 33 33 32 31 31 31 30 30 29 29 28 28 27 28 27 27 26 26 26 25 25 25
45 44 44 43 44 43 42 41 40 40 39 39 38 37 36 36 35 35 34 34 33 32 31 31 30 30 30 29 29 29 28 27 27 27 27 26 26 25 25 25 25 24
44 45 44 44 44 43 42 39 39 39 38 37 37 37 36 35 35 34 34 33 32 31 31 30 30 30 29 29 28 28 28 28 27 26 26 26 25 25 25 25 25 25
45 44 44 43 43 42 40 39 39 38 37 38 36 36 35 34 34 33 33 32 32 31 30 30 30 29 29 28 28 28 27 27 26 26 26 25 24 25 25 25 24 24
44 44 43 43 42 40 39 39 39 37 37 35 36 35 35 34 34 33 33 32 32 31 30 30 29 29 28 28 28 28 26 26 25 25 25 24 24 24 25 25 24 23
43 42 42 41 40 39 39 39 38 37 37 37 34 34 34 34 33 33 32 32 31 31 30 30 29 28 28 28 27 27 26 26 25 25 25 24 24 23 24 24 23 23
42 41 40 39 38 37 38 38 37 37 37 35 35 35 34 34 33 33 32 32 31 31 30 30 29 28 28 27 27 26 25 25 25 24 24 24 23 23 23 24 23 22
41 39 39 38 38 38 38 38 37 37 36 35 35 34 34 34 34 33 32 32 31 30 30 29 29 28 27 27 27 26 25 25 25 24 24 23 23 23 23 23 22 22
40 39 38 38 38 38 38 38 37 36 35 35 35 34 33 33 33 33 32 31 31 30 29 28 28 27 27 27 27 26 25 25 24 24 24 24 23 23 23 22 22 22
39 38 38 38 38 39 38 37 36 35 34 35 34 33 33 32 32 32 31 31 30 29 28 28 27 27 26 26 26 26 25 25 24 24 24 23 23 23 24 22 22 22
39 38 38 38 38 38 38 37 36 35 34 34 34 33 32 32 31 31 31 30 30 29 28 28 27 26 26 26 25 25 25 24 24 23 23 23 23 23 23 23 23 24
39 39 39 39 39 39 38 36 35 34 33 33 33 33 31 31 30 30 30 30 29 28 28 27 26 26 25 25 24 23 23 23 23 23 23 23 23 23 24 24 24 24
40 40 40 40 39 38 37 36 35 34 33 33 32 32 31 31 30 29 29 29 28 27 27 26 25 25 24 24 23 23 22 23 23 22 22 22 23 24 25 25 25 25
40 40 39 38 37 37 36 35 34 33 33 32 31 31 31 31 30 29 27 27 26 26 26 25 25 25 24 24 23 22 23 23 23 22 22 22 23 24 24 25 25 25
39 38 38 37 36 35 34 34 33 32 31 30 30 30 30 29 28 28 27 27 25 25 24 24 25 25 26 28 27 23 22 22 23 23 22 22 21 22 23 24 24 24
37 37 36 34 34 34 32 31 31 30 30 28 28 28 27 26 27 26 26 26 26 25 24 24 25 25 29 30 30 29 23 22 21 21 21 22 22 22 22 23 24 25
36 35 33 33 32 31 30 29 29 28 27 26 26 25 25 25 26 26 26 26 25 24 24 24 23 27 31 31 31 30 27 22 21 21 21 22 22 23 23 24 24 24
34 32 31 30 30 30 28 27 27 26 25 24 24 24 24 23 26 25 25 25 24 23 23 23 23 29 31 32 32 31 30 25 22 22 21 22 23 24 24 24 24 24
32 30 30 29 29 28 26 25 25 25 25 24 24 23 23 23 23 23 23 23 23 23 22 23 22 28 32 32 32 32 31 27 21 22 23 24 24 24 24 24 24 24
31 30 29 28 26 26 25 24 24 24 23 23 23 23 22 22 22 21 20 21 21 22 22 21 22 29 31 32 32 33 32 29 22 23 24 24 25 25 25 25 24 23
30 29 28 26 25 24 24 24 24 24 23 23 23 23 22 22 21 21 20 19 20 19 20 19 21 29 31 32 32 32 33 26 22 22 22 24 24 24 24 23 23 22
31 29 27 25 25 24 24 24 24 23 23 22 21 21 20 20 20 20 19 19 18 18 18 17 18 27 31 32 32 32 30 22 22 22 22 22 22 23 22 22 22 22
30 29 28 26 24 24 24 25 24 24 23 22 21 20 19 19 19 18 18 18 18 17 18 17 17 25 31 31 31 31 28 22 22 21 21 21 19 21 20 20 21 24
28 28 28 26 25 25 25 24 23 23 22 20 21 20 19 18 17 17 16 16 16 16 21 18 15 22 30 29 30 30 27 22 21 20 19 19 18 17 20 21 21 23
28 27 27 26 25 24 24 24 23 20 19 20 19 19 18 17 16 16 15 14 15 15 18 17 15 16 24 29 29 30 29 22 21 19 17 18 18 17 15 18 21 22
MSLP
1010.21 1010.57 1010.69 1011.05 1011.29 1011.65 1012.17 1012.69 1012.97 1013.25 1013.57 1014.05 1014.29 1014.45 1014.77 1015.13 1016.01 1016.41 1016.69 1017.13 1017.45 1017.81 1018.17 1018.53 1018.89 1019.21 1019.45 1019.69 1019.85 1020.09 1020.33 1020.53 1020.77 1021.01 1021.17 1021.41 1021.61 1021.81 1022.05 1022.37 1022.65 1022.93
1009.53 1009.81 1010.29 1010.69 1011.01 1011.29 1011.49 1011.97 1012.49 1012.81 1013.09 1013.45 1013.77 1014.25 1014.69 1015.13 1015.45 1015.93 1016.37 1016.73 1017.17 1017.49 1017.89 1018.33 1018.61 1018.85 1019.13 1019.41 1019.65 1019.89 1020.25 1020.45 1020.53 1020.85 1020.97 1021.21 1021.45 1021.65 1021.85 1022.09 1022.37 1022.81
1009.05 1009.57 1009.73 1009.81 1009.77 1010.21 1010.93 1011.57 1012.05 1012.41 1012.69 1013.01 1013.53 1013.89 1014.21 1014.69 1015.17 1015.61 1016.05 1016.45 1016.85 1017.25 1017.65 1017.97 1018.33 1018.61 1018.85 1019.13 1019.45 1019.69 1019.93 1020.17 1020.33 1020.65 1020.77 1020.97 1021.25 1021.41 1021.65 1021.97 1022.29 1022.61
1008.45 1008.61 1008.89 1009.21 1009.69 1010.09 1010.65 1011.25 1011.69 1012.05 1012.37 1012.81 1012.81 1013.21 1013.85 1014.33 1014.81 1015.29 1015.69 1016.13 1016.49 1016.93 1017.33 1017.73 1017.97 1018.33 1018.65 1018.93 1019.25 1019.53 1019.69 1019.93 1020.09 1020.41 1020.57 1020.89 1021.13 1021.33 1021.57 1021.81 1022.01 1022.33
1007.77 1008.17 1008.61 1008.93 1009.37 1009.85 1010.37 1010.65 1011.05 1011.49 1011.81 1012.01 1012.77 1013.13 1013.49 1014.01 1014.53 1015.01 1015.37 1015.77 1016.13 1016.57 1017.01 1017.33 1017.73 1018.05 1018.41 1018.77 1019.01 1019.29 1019.61 1019.81 1020.09 1020.29 1020.45 1020.73 1021.01 1021.13 1021.41 1021.65 1021.93 1022.21
1007.57 1007.85 1008.13 1008.57 1008.97 1009.41 1009.85 1010.01 1010.33 1011.01 1011.49 1011.89 1012.05 1012.73 1013.09 1013.45 1013.93 1014.29 1014.73 1015.21 1015.65 1016.05 1016.53 1016.97 1017.37 1017.77 1018.17 1018.49 1018.85 1019.05 1019.37 1019.61 1019.93 1020.13 1020.33 1020.57 1020.93 1021.13 1021.33 1021.57 1021.85 1022.13
1006.69 1007.21 1007.69 1008.17 1008.69 1009.05 1009.29 1009.61 1009.97 1010.41 1010.89 1011.21 1011.93 1012.29 1012.61 1013.09 1013.41 1013.77 1014.25 1014.69 1015.17 1015.57 1015.97 1016.41 1016.89 1017.41 1017.81 1018.21 1018.53 1018.81 1019.21 1019.45 1019.81 1020.01 1020.13 1020.49 1020.77 1021.09 1021.25 1021.41 1021.65 1021.89
1006.21 1006.77 1007.33 1007.89 1008.29 1008.77 1009.01 1009.29 1009.57 1009.85 1010.29 1011.01 1011.21 1011.49 1012.17 1012.53 1012.93 1013.41 1013.85 1014.29 1014.77 1015.17 1015.57 1015.97 1016.45 1016.85 1017.37 1017.81 1018.21 1018.65 1019.05 1019.37 1019.61 1019.77 1020.01 1020.29 1020.57 1020.73 1020.97 1021.17 1021.45 1021.69
1005.81 1006.45 1006.85 1007.25 1007.65 1008.05 1008.33 1008.57 1008.97 1009.41 1009.89 1010.25 1010.69 1011.17 1011.65 1012.09 1012.49 1013.01 1013.49 1013.97 1014.41 1014.77 1015.21 1015.65 1016.01 1016.49 1017.01 1017.37 1017.81 1018.21 1018.61 1018.97 1019.21 1019.41 1019.61 1019.93 1020.17 1020.33 1020.65 1020.97 1021.25 1021.45
1005.33 1005.81 1006.45 1006.77 1007.05 1007.17 1007.49 1007.89 1008.45 1009.01 1009.49 1009.85 1010.25 1010.85 1011.29 1011.73 1012.29 1012.73 1013.25 1013.69 1014.05 1014.49 1014.85 1015.21 1015.69 1016.13 1016.61 1017.01 1017.37 1017.81 1018.21 1018.49 1018.81 1019.05 1019.29 1019.53 1019.77 1020.05 1020.37 1020.69 1020.93 1021.25
1004.69 1005.21 1005.65 1006.01 1006.21 1006.53 1006.81 1007.33 1007.97 1008.57 1009.13 1009.37 1009.93 1010.45 1010.85 1011.41 1012.01 1012.49 1012.93 1013.33 1013.57 1013.93 1014.41 1014.89 1015.25 1015.73 1016.25 1016.77 1017.21 1017.57 1017.85 1018.17 1018.45 1018.73 1019.01 1019.25 1019.53 1019.81 1020.09 1020.37 1020.65 1020.89
1004.13 1004.65 1004.85 1005.01 1005.29 1005.77 1006.29 1006.81 1007.33 1007.97 1008.57 1009.01 1009.37 1009.89 1010.49 1010.93 1011.33 1011.89 1012.21 1012.65 1013.05 1013.53 1013.97 1014.45 1014.97 1015.41 1015.85 1016.33 1016.85 1017.29 1017.65 1017.89 1018.17 1018.45 1018.77 1019.05 1019.29 1019.53 1019.73 1019.93 1020.25 1020.53
1003.57 1003.65 1003.77 1004.17 1004.61 1004.97 1005.65 1006.45 1007.01 1007.45 1008.01 1008.37 1008.81 1009.29 1009.85 1010.41 1010.89 1011.33 1011.81 1012.21 1012.73 1013.25 1013.69 1014.13 1014.65 1015.13 1015.61 1016.05 1016.53 1016.93 1017.21 1017.53 1017.93 1018.25 1018.53 1018.77 1018.93 1019.13 1019.37 1019.61 1019.89 1020.17
1002.65 1002.65 1003.09 1003.45 1004.01 1004.77 1005.37 1005.85 1006.49 1007.13 1007.57 1007.97 1008.53 1008.93 1009.29 1009.65 1010.17 1010.73 1011.41 1011.97 1012.45 1012.93 1013.45 1013.89 1014.33 1014.81 1015.25 1015.73 1016.25 1016.65 1016.97 1017.29 1017.61 1017.93 1018.25 1018.49 1018.73 1018.93 1019.13 1019.37 1019.57 1019.81
1001.89 1002.33 1002.77 1003.29 1003.85 1004.37 1004.93 1005.49 1006.01 1006.61 1007.21 1007.69 1008.17 1008.53 1008.97 1009.37 1009.89 1010.45 1011.17 1011.81 1012.33 1012.69 1013.17 1013.57 1013.93 1014.29 1014.77 1015.29 1015.85 1016.37 1016.61 1016.85 1017.21 1017.57 1017.85 1018.21 1018.49 1018.69 1018.85 1019.01 1019.21 1019.33
1001.57 1002.09 1002.57 1003.01 1003.61 1004.01 1004.45 1005.05 1005.73 1006.37 1006.89 1007.41 1007.81 1008.17 1008.65 1009.21 1009.77 1010.29 1010.77 1011.21 1011.85 1012.49 1012.93 1013.29 1013.57 1013.89 1014.29 1014.69 1015.21 1015.69 1016.17 1016.57 1016.93 1017.29 1017.65 1017.89 1018.13 1018.33 1018.41 1018.53 1018.65 1018.77
1001.57 1001.97 1002.49 1002.97 1003.25 1003.81 1004.41 1005.01 1005.57 1006.13 1006.69 1007.17 1007.65 1008.05 1008.45 1009.01 1009.53 1010.09 1010.57 1011.01 1011.45 1011.93 1012.45 1012.85 1013.17 1013.53 1013.85 1014.21 1014.65 1015.21 1015.73 1016.17 1016.53 1016.85 1017.13 1017.33 1017.53 1017.73 1017.89 1017.97 1018.09 1018.17
1001.05 1001.57 1002.13 1002.57 1003.13 1003.57 1004.09 1004.69 1005.33 1005.93 1006.41 1006.89 1007.45 1007.93 1008.37 1008.93 1009.33 1009.69 1010.25 1010.77 1011.25 1011.69 1012.05 1012.37 1012.73 1013.01 1013.17 1013.49 1013.89 1014.37 1014.93 1015.41 1015.81 1016.17 1016.45 1016.69 1016.89 1017.05 1017.17 1017.33 1017.45 1017.57
1000.65 1001.13 1001.61 1002.17 1002.61 1003.21 1003.97 1004.65 1005.13 1005.69 1006.21 1006.73 1007.09 1007.53 1008.25 1008.69 1009.01 1009.57 1010.09 1010.61 1011.01 1011.37 1011.77 1012.05 1012.33 1012.37 1012.41 1012.69 1013.09 1013.49 1014.01 1014.69 1015.17 1015.45 1015.77 1016.01 1016.13 1016.29 1016.49 1016.69 1016.85 1017.01
1000.49 1000.97 1001.41 1001.81 1002.45 1003.17 1003.85 1004.45 1004.93 1005.21 1005.69 1006.29 1006.97 1007.61 1007.93 1008.45 1008.93 1009.37 1009.89 1010.29 1010.61 1010.97 1011.33 1011.65 1011.93 1011.93 1012.05 1012.41 1012.89 1013.29 1013.77 1014.37 1014.93 1015.13 1015.33 1015.45 1015.53 1015.73 1016.01 1016.21 1016.41 1016.57
1000.17 1000.61 1001.13 1001.73 1002.33 1002.97 1003.69 1004.21 1004.61 1005.13 1005.61 1006.01 1006.41 1006.85 1007.37 1007.85 1008.37 1009.01 1009.53 1010.01 1010.41 1010.77 1011.13 1011.53 1011.89 1012.05 1012.25 1012.65 1013.09 1013.41 1013.73 1014.29 1014.89 1015.09 1015.21 1015.37 1015.49 1015.73 1015.93 1016.05 1016.21 1016.41
999.65 1000.21 1000.81 1001.53 1002.13 1002.77 1003.33 1003.85 1004.33 1004.57 1004.97 1005.61 1006.21 1006.81 1007.37 1007.89 1008.45 1008.81 1009.29 1009.81 1010.25 1010.61 1011.01 1011.45 1011.85 1011.97 1012.17 1012.53 1012.97 1013.33 1013.65 1014.13 1014.73 1015.01 1015.21 1015.33 1015.49 1015.65 1015.85 1016.01 1016.13 1016.29
999.49 999.93 1000.57 1001.25 1001.77 1002.33 1002.81 1003.29 1003.85 1004.37 1004.85 1005.33 1005.89 1006.41 1006.97 1007.49 1007.93 1008.41 1008.97 1009.53 1010.01 1010.37 1010.69 1011.17 1011.69 1011.73 1011.93 1012.41 1012.85 1013.25 1013.61 1014.21 1014.57 1014.93 1015.17 1015.41 1015.61 1015.77 1015.89 1016.01 1016.09 1016.21
1000.17 1000.21 1000.41 1000.89 1001.41 1001.61 1001.97 1002.65 1003.37 1004.05 1004.41 1004.81 1005.09 1005.89 1006.57 1007.09 1007.77 1008.49 1009.05 1009.33 1009.61 1009.93 1010.25 1010.81 1011.41 1011.49 1011.61 1012.17 1012.69 1013.05 1013.57 1014.17 1014.49 1014.85 1015.09 1015.41 1015.73 1015.85 1016.01 1016.09 1016.09 1016.09
1000.81 1001.13 1001.17 1001.21 1001.29 1001.49 1002.01 1002.57 1003.09 1003.53 1004.21 1004.89 1005.21 1005.73 1006.37 1007.17 1007.89 1008.41 1008.97 1009.29 1009.49 1009.73 1010.05 1010.61 1011.21 1011.33 1011.33 1011.89 1012.41 1012.85 1013.41 1014.13 1014.41 1014.77 1015.09 1015.37 1015.65 1015.93 1015.97 1016.05 1016.01 1016.01
1000.73 1000.93 1001.21 1001.65 1002.13 1002.61 1003.01 1003.41 1003.85 1004.37 1004.73 1005.01 1005.49 1005.89 1006.53 1007.25 1007.85 1008.29 1008.65 1009.09 1009.37 1009.69 1009.89 1010.45 1011.09 1011.41 1011.29 1011.49 1011.93 1012.37 1012.89 1013.77 1014.17 1014.53 1014.89 1015.21 1015.49 1015.81 1015.97 1015.85 1015.89 1015.97
Wind_Speed
13 12 14 13 13 11 11 12 12 12 12 11 12 13 13 11 10 13 13 11 11 11 10 9 8 8 8 8 8 7 7 7 6 6 7 7 6 7 6 6 5 5
16 15 11 10 10 10 11 11 11 12 12 12 11 9 9 10 11 12 12 12 11 11 9 9 9 9 9 8 8 8 7 7 7 5 7 7 6 6 6 6 6 4
14 14 15 16 16 15 12 10 10 11 11 11 9 10 10 9 11 11 11 11 11 10 10 10 9 9 9 8 8 8 8 8 8 6 7 7 6 6 5 5 4 4
16 17 16 15 13 12 11 10 10 10 9 10 13 10 10 9 10 12 11 12 11 10 10 9 10 9 9 9 8 7 8 7 7 7 6 5 5 5 5 5 5 4
16 15 13 13 11 10 9 12 13 12 12 11 8 10 10 10 11 11 11 11 11 10 10 11 9 10 9 9 9 8 7 7 6 7 7 6 5 6 5 5 4 5
12 13 13 12 12 12 12 13 13 12 11 10 13 9 11 12 12 13 13 13 11 11 11 10 10 9 9 9 8 8 8 7 7 7 7 6 5 5 4 5 5 5
15 14 14 12 11 12 13 12 11 12 12 11 8 12 11 12 13 13 13 13 13 12 13 12 12 11 9 9 9 8 7 7 7 7 7 5 5 5 4 5 6 5
14 11 11 11 12 11 12 12 12 12 12 10 13 12 12 13 13 12 12 13 13 12 12 12 11 11 10 9 9 9 8 6 8 8 7 6 6 6 6 5 5 5
12 11 12 13 14 13 14 14 13 12 11 14 13 12 12 12 13 12 13 13 12 12 12 12 12 11 10 10 10 10 10 8 8 8 9 8 8 7 6 5 5 5
13 13 13 14 15 15 16 14 12 11 11 13 12 11 13 11 11 12 12 13 13 12 12 12 12 11 10 10 10 11 10 10 9 9 8 8 7 7 6 6 6 6
14 14 15 16 17 14 16 14 13 12 11 13 12 12 12 11 11 11 12 13 13 14 13 12 12 11 11 10 9 9 9 9 9 8 8 7 7 6 6 6 6 6
15 14 17 18 18 15 15 14 13 13 13 11 13 14 12 12 13 12 13 14 13 12 12 12 11 11 11 11 10 9 9 8 8 8 7 7 7 6 6 6 6 6
15 17 17 17 16 15 13 12 13 13 13 14 13 13 14 13 13 13 11 12 12 11 12 12 11 11 11 10 11 10 10 9 8 8 7 7 7 7 7 7 6 6
17 17 16 15 13 12 12 13 13 12 13 12 12 14 14 15 15 14 11 11 11 11 10 10 11 11 10 10 9 9 9 9 9 8 8 7 6 6 6 7 7 7
15 13 12 12 12 12 13 13 13 13 12 12 12 12 11 12 12 12 12 11 10 10 11 10 11 11 10 11 11 10 10 10 10 9 8 8 6 7 7 7 7 7
13 11 11 11 12 13 14 13 13 12 13 13 13 13 11 11 11 11 12 13 13 11 10 10 10 8 11 18 14 10 10 8 8 8 8 8 8 8 8 8 8 8
10 11 11 12 13 12 10 12 13 12 12 12 12 12 12 12 12 13 12 11 13 13 12 10 9 8 18 20 20 19 11 10 9 9 9 9 9 8 8 8 8 8
12 11 12 12 11 12 12 12 11 12 12 12 12 12 11 10 12 13 12 11 10 11 11 11 10 14 22 22 22 22 18 12 10 9 10 9 9 9 8 8 8 7
11 12 12 12 12 12 11 11 12 12 12 12 13 11 10 12 13 12 12 11 11 12 12 11 10 19 23 25 24 24 24 17 9 10 9 9 10 10 9 8 7 8
11 11 12 12 11 11 11 12 13 14 12 10 10 10 12 11 11 12 12 12 12 13 12 11 12 18 24 23 22 23 23 17 8 9 9 10 10 9 8 8 9 7
11 12 12 11 11 12 12 12 13 11 12 12 12 14 14 14 14 13 12 12 12 11 11 10 9 17 20 21 20 21 22 16 7 7 7 7 7 8 8 8 7 5
13 13 12 11 12 12 13 13 13 14 15 12 11 9 8 8 8 10 12 12 11 10 9 9 8 18 19 20 20 19 20 9 7 6 6 5 7 8 6 4 4 4
12 13 13 13 13 14 15 14 14 13 12 10 12 11 12 12 12 12 10 11 12 11 10 8 7 14 20 19 19 20 15 5 6 6 5 6 7 7 5 4 4 4
7 11 13 14 14 16 16 14 12 9 12 12 14 13 13 12 10 9 9 10 12 12 11 10 8 13 20 19 19 20 13 7 6 6 6 5 4 4 3 3 4 10
5 5 7 10 13 13 12 13 14 13 10 9 9 10 10 9 9 9 8 8 8 9 13 11 9 11 20 19 20 20 13 6 7 6 6 6 5 4 4 3 4 6
5 7 7 7 7 5 5 6 5 7 9 10 8 8 9 9 9 9 11 9 8 9 10 10 10 8 12 21 20 20 18 8 6 7 7 7 5 5 3 3 5 6
Wind_Direction
204 201 206 202 207 203 197 197 197 195 197 194 197 198 194 192 171 185 190 184 186 186 182 180 175 174 175 173 174 168 174 174 171 170 174 170 173 166 170 173 178 183
207 205 205 205 208 205 203 196 196 196 197 196 199 191 191 179 186 182 185 187 183 186 178 176 178 177 174 175 175 171 171 171 176 175 169 172 173 169 174 175 182 183
204 202 204 204 207 203 198 191 192 198 195 196 186 188 188 184 180 184 185 183 183 180 179 179 177 180 178 176 173 174 175 173 176 174 170 178 172 176 178 165 173 185
207 207 207 210 207 202 193 183 193 194 190 185 196 185 177 181 179 180 183 182 181 180 178 177 181 178 178 176 172 179 178 177 172 166 173 169 175 166 167 164 179 188
208 208 208 208 205 196 183 191 194 194 193 193 174 180 177 175 178 180 181 182 180 178 178 181 178 180 176 175 176 174 176 173 171 170 171 176 174 169 174 164 179 200
208 207 206 203 199 191 192 197 196 189 189 182 189 172 183 177 179 182 182 181 182 179 179 178 179 178 177 176 176 179 173 172 174 170 174 179 175 172 169 170 182 204
206 202 203 199 195 195 198 198 192 188 189 188 158 185 180 180 183 185 182 182 179 180 180 180 178 177 178 175 178 177 174 170 168 175 177 180 168 178 174 175 188 202
204 198 194 189 193 194 200 197 194 191 186 171 185 184 178 184 184 182 182 180 180 181 181 179 179 177 176 173 175 173 174 173 175 176 179 179 174 186 179 181 183 199
197 192 189 192 193 196 200 197 196 191 180 184 185 182 181 182 183 179 180 179 181 181 179 179 178 176 176 176 178 177 176 178 178 177 181 181 185 188 180 175 184 199
194 193 190 194 198 200 202 199 192 188 183 186 183 176 180 183 178 179 176 179 180 179 180 177 176 176 175 180 178 178 178 178 176 180 183 185 184 180 179 179 190 199
196 190 193 196 201 200 202 193 189 184 183 185 177 180 181 172 177 176 178 179 183 181 179 178 178 174 174 177 179 178 179 175 178 178 181 181 180 179 179 181 189 204
198 194 199 200 201 201 199 192 186 183 182 184 179 178 175 178 175 179 182 185 183 180 178 177 173 173 176 176 175 174 175 177 173 174 175 175 179 181 183 187 191 200
198 200 200 201 200 198 189 184 186 185 180 183 181 177 174 177 181 179 184 180 180 174 176 172 170 170 172 174 175 176 174 171 169 172 176 177 185 185 188 193 197 200
204 204 200 200 195 189 185 187 183 181 185 181 173 178 181 180 178 179 176 176 175 174 172 167 168 172 174 174 171 170 169 171 172 175 177 182 180 188 188 198 204 206
203 201 198 191 187 184 183 184 183 182 179 176 179 181 181 180 176 172 167 171 171 171 168 170 172 176 174 171 169 172 173 174 175 176 177 176 178 188 198 201 208 212
198 194 191 186 182 185 187 181 178 177 176 177 181 181 175 172 170 172 173 174 171 171 170 172 178 175 176 176 173 169 171 171 169 173 175 180 183 190 198 203 209 214
188 192 182 185 188 184 178 176 177 175 178 179 178 176 173 170 169 171 178 177 175 173 173 177 177 174 177 181 179 176 169 168 172 178 180 182 186 187 196 207 213 214
190 183 182 186 179 183 179 178 172 174 177 177 174 173 172 165 173 179 175 175 174 174 176 176 175 177 182 183 183 181 177 176 176 177 179 183 186 192 198 201 207 210
184 182 183 180 184 178 173 170 174 174 175 174 179 173 159 172 178 170 177 174 174 173 177 178 178 183 185 185 186 186 183 176 176 175 177 181 187 192 196 199 203 212
182 179 183 183 173 170 168 173 175 182 177 171 161 161 172 173 173 176 173 177 178 179 179 181 182 188 187 188 189 188 184 175 176 177 182 185 187 191 194 201 211 214
183 182 182 174 170 167 169 176 179 173 171 173 172 174 175 178 176 176 179 177 179 178 178 180 184 189 190 191 192 190 187 175 170 175 180 184 188 197 204 204 209 204
181 181 177 170 167 169 174 178 179 179 176 172 169 172 172 167 175 176 175 178 177 172 170 176 178 191 192 191 189 187 188 172 163 173 179 182 193 196 198 205 202 209
185 178 174 171 172 173 180 181 179 180 176 167 169 173 172 178 179 179 176 172 172 172 170 170 170 190 189 187 187 187 183 152 167 165 177 175 186 195 201 208 205 210
196 181 177 176 176 183 184 184 178 174 176 173 174 171 178 181 171 168 173 174 173 174 171 165 168 187 184 185 186 189 178 163 168 164 170 180 181 197 201 211 220 230
192 201 195 185 187 188 180 177 179 179 168 165 172 169 171 162 164 166 166 170 173 167 165 163 166 185 184 183 186 189 181 154 168 167 173 187 181 196 206 208 231 242
179 184 184 186 188 171 173 176 156 152 165 169 165 163 161 162 164 167 168 169 165 162 171 163 167 182 189 185 188 190 184 165 167 171 186 186 180 181 194 222 227 247